Location: Seven Kings
(51.5667°N, 0.1000°E)
Time: 03:26:29
(UTC+00:00)

NOSS 3-4 (C) - Pass Details

Date: 29 October 2020
Orbit: 886 x 1326 km, 63.4° (Epoch: 06 November)

Event Time Altitude Azimuth Distance (km) Brightness Sun altitude
Rises 17:50:55 0° 311° (NW) 3,717 7.2 -11.9°
Reaches altitude 10° 17:53:29 10° 316° (NW) 2,822 6.4 -12.3°
Maximum altitude 18:00:01 52° 33° (NNE) 1,353 4.0 -13.3°
Enters shadow 18:05:43 17° 104° (ESE) 2,609 5.1 -14.2°
